Location: Cañada de la Miga
(34.7595°N, 106.2317°W)
Time: 03:49:16
(UTC+00:00)

Explorer 11/Cluster Stage 4 - Visible Passes

Search period start: 28 November 2021 00:00
Search period end: 08 December 2021 00:00
Orbit: 467 x 1255 km, 28.8° (Epoch: 27 November)

Date Brightness Start Highest point End Pass type
(mag) Time Alt. Az. Time Alt. Az. Time Alt. Az.
28 Nov 9.7 09:38:53 15° ESE 09:38:53 15° ESE 09:40:37 10° ESE visible
28 Nov 8.2 11:21:00 36° SSW 11:23:22 44° SSE 11:31:03 10° E visible
28 Nov 8.0 13:04:25 10° WSW 13:12:24 57° S 13:20:10 10° ESE visible
29 Nov 9.8 09:28:30 12° ESE 09:28:30 12° ESE 09:29:17 10° ESE visible
29 Nov 8.0 11:10:36 43° S 11:11:47 46° SSE 11:19:34 10° E visible
29 Nov 8.0 12:52:55 10° WSW 13:00:50 57° S 13:08:44 10° ESE visible
30 Nov 7.9 11:00:08 48° S 11:00:13 48° SSE 11:08:03 10° E visible
30 Nov 8.0 12:42:15 13° WSW 12:49:17 57° S 12:57:15 10° ESE visible
01 Dec 8.0 10:49:37 48° SSE 10:49:37 48° SSE 10:56:31 10° E visible
01 Dec 7.9 12:31:43 18° WSW 12:37:44 56° S 12:45:44 10° ESE visible
02 Dec 8.2 10:39:03 43° SE 10:39:03 43° SE 10:44:57 10° E visible
02 Dec 7.9 12:21:09 23° WSW 12:26:10 55° S 12:34:10 10° ESE visible
03 Dec 8.5 10:28:28 36° ESE 10:28:28 36° ESE 10:33:21 10° E visible
03 Dec 7.9 12:10:34 28° WSW 12:14:36 53° S 12:22:34 10° ESE visible
04 Dec 8.8 10:17:52 29° ESE 10:17:52 29° ESE 10:21:45 10° E visible
04 Dec 7.9 11:59:58 33° WSW 12:03:04 51° S 12:10:56 10° ESE visible
05 Dec 9.1 10:07:15 23° ESE 10:07:15 23° ESE 10:10:07 10° ESE visible
05 Dec 7.8 11:49:21 38° SW 11:51:31 48° S 11:59:15 10° ESE visible
06 Dec 9.4 09:56:39 18° ESE 09:56:39 18° ESE 09:58:29 10° ESE visible
06 Dec 7.8 11:38:45 42° SW 11:39:59 45° SSW 11:47:33 10° ESE visible
06 Dec 8.9 13:22:39 10° WSW 13:28:43 25° SSW 13:35:05 10° SSE visible
07 Dec 9.7 09:46:03 13° ESE 09:46:03 13° ESE 09:46:50 10° ESE visible
07 Dec 7.9 11:28:10 41° SSW 11:28:28 41° SSW 11:35:48 10° SE visible
07 Dec 9.0 13:11:34 10° WSW 13:17:08 22° SSW 13:23:02 10° SSE visible
